Weather History for Big Piney, WY

Change the Weather History Date:

Tuesday, August 20, 2013

  Actual Average Record
Temperature  
Mean Temperature 68 °F 59 °F  
Max Temperature 82 °F 78 °F 89 °F (2003)
Min Temperature 54 °F 40 °F 25 °F (1980)
Degree Days  
Heating Degree Days 0 6  
Month to date heating degree days 53 89  
Since 1 June heating degree days 294 511  
Since 1 July heating degree days 77 206  
Cooling Degree Days 3 0  
Month to date cooling degree days 6 12  
Year to date cooling degree days 83 36  
Since 1 June cooling degree days 83 36  
Growing Degree Days 18 (Base 50)    
Moisture  
Dew Point 44 °F    
Average Humidity 50    
Maximum Humidity 72    
Minimum Humidity 28    
Precipitation  
Precipitation 0.03 in 0.02 in 0.18 in (2004)
Month to date precipitation 0.08 0.46  
Year to date precipitation 2.67 4.43  
Sea Level Pressure  
Sea Level Pressure 30.01 in    
Wind  
Wind Speed 7 mph (South)    
Max Wind Speed 25 mph    
Max Gust Speed 30 mph    
Visibility 10 miles    
Events Rain , Thunderstorm    
T = Trace of Precipitation, MM = Missing Value Source: NWS Daily Summary

Daily Weather History Graph

Daily Weather History Graph

Search for Another Location

Airport:

Trip Planner

Search our weather history database for the weather conditions in past years. The results will help you decide how hot, cold, wet, or windy it might be!

Date:

Astronomy

Aug. 20, 2013 Rise Set
Actual Time 6:32 AM MDT 8:13 PM MDT
Civil Twilight 6:02 AM MDT 8:43 PM MDT
Nautical Twilight 5:26 AM MDT 9:19 PM MDT
Astronomical Twilight 4:47 AM MDT 9:58 PM MDT
Moon 7:45 PM MDT 6:07 AM MDT
Length of Visible Light 14h 40m
Length of Day
13h 40m
Full, 100% of the Moon is Illuminated
Aug 20
Full
Aug 20
Full
Aug 28
Last Quarter
Sep 5
New
Sep 12
First Quarter

Hourly Weather History & Observations

Time (MDT) Temp. Dew Point Humidity Pressure Visibility Wind Dir Wind Speed Gust Speed Precip Events Conditions
12:53 AM 57.9 °F 32.0 °F 37% 29.92 in 10.0 mi NNW 5.8 mph - N/A   Clear
1:53 AM 59.0 °F 30.9 °F 35% 29.91 in 10.0 mi Variable 3.5 mph - N/A   Clear
2:53 AM 55.9 °F 33.1 °F 42% 29.92 in 10.0 mi East 4.6 mph - N/A   Clear
3:53 AM 55.9 °F 34.0 °F 44% 29.91 in 10.0 mi Calm Calm - N/A   Clear
4:53 AM 55.9 °F 35.1 °F 45% 29.91 in 10.0 mi East 5.8 mph - N/A   Mostly Cloudy
5:53 AM 55.9 °F 35.1 °F 45% 29.92 in 10.0 mi Calm Calm - N/A   Mostly Cloudy
6:53 AM 55.9 °F 37.0 °F 49% 29.95 in 10.0 mi Calm Calm - N/A   Overcast
7:53 AM 63.0 °F 45.0 °F 52% 29.97 in 9.0 mi West 12.7 mph 17.3 mph 0.00 in Rain Light Rain
8:53 AM 57.9 °F 45.0 °F 62% 30.02 in 10.0 mi South 9.2 mph - 0.00 in   Overcast
9:53 AM 66.9 °F 48.9 °F 52% 29.99 in 10.0 mi NNE 3.5 mph - N/A   Partly Cloudy
10:53 AM 73.0 °F 45.0 °F 37% 29.99 in 10.0 mi SSW 3.5 mph - N/A   Clear
11:53 AM 75.9 °F 44.1 °F 32% 29.98 in 10.0 mi SSE 9.2 mph 16.1 mph N/A   Clear
12:53 PM 79.0 °F 42.1 °F 27% 29.95 in 10.0 mi South 8.1 mph - N/A   Clear
1:05 PM 78.8 °F 39.2 °F 24% 30.26 in 10.0 mi Variable 4.6 mph 16.1 mph N/A Thunderstorm Clear
1:16 PM 80.6 °F 39.2 °F 23% 30.26 in 10.0 mi Variable 5.8 mph - N/A Thunderstorm Thunderstorm
1:53 PM 66.0 °F 48.0 °F 52% 30.01 in 8.0 mi WSW 21.9 mph 29.9 mph 0.00 in Rain , Thunderstorm Light Thunderstorms and Rain
2:20 PM 64.4 °F 53.6 °F 68% 30.27 in 10.0 mi SSE 13.8 mph 19.6 mph 0.03 in Thunderstorm Overcast
2:41 PM 69.8 °F 53.6 °F 56% 30.26 in 10.0 mi SE 15.0 mph - 0.03 in   Scattered Clouds
2:53 PM 72.0 °F 50.0 °F 46% 29.97 in 10.0 mi SE 15.0 mph 20.7 mph 0.03 in Thunderstorm Partly Cloudy
3:32 PM 73.4 °F 48.2 °F 41% 30.24 in 10.0 mi SE 9.2 mph - N/A   Scattered Clouds
3:53 PM 73.0 °F 48.0 °F 41% 29.94 in 10.0 mi SSE 9.2 mph - N/A   Scattered Clouds
4:53 PM 73.0 °F 50.0 °F 44% 29.94 in 10.0 mi South 12.7 mph - N/A   Scattered Clouds
5:53 PM 73.0 °F 51.1 °F 46% 29.93 in 10.0 mi SSE 3.5 mph - N/A   Mostly Cloudy
6:53 PM 68.0 °F 50.0 °F 52% 29.97 in 10.0 mi SSW 15.0 mph 24.2 mph 0.00 in Rain Light Rain
7:53 PM 63.0 °F 52.0 °F 67% 30.00 in 10.0 mi WSW 15.0 mph - 0.00 in Rain Light Rain
8:53 PM 64.0 °F 48.9 °F 58% 30.04 in 10.0 mi NW 4.6 mph - 0.00 in   Overcast
9:53 PM 63.0 °F 48.9 °F 60% 30.01 in 10.0 mi SW 3.5 mph - N/A   Overcast
10:53 PM 63.0 °F 48.0 °F 58% 29.98 in 10.0 mi Calm Calm - N/A   Overcast
11:53 PM 57.9 °F 48.9 °F 72% 29.98 in 10.0 mi NNW 8.1 mph - N/A   Clear